Starlink 31640

operational
NORAD ID: 59748 Int'l Des: 2024-090 Owner: SPXS Country: US Constellation: starlink
LEOCIRCULAR

关于 Starlink 31640

正在加载描述...

实时位置

正在加载3D地球...

即将过境

高度历史

Altitude vs Time

uPlot chart will show altitude changes over time

两行轨道根数

1 59748U 24090U 25353.81401399 .00002200 00000-0 89482-4 0 9990
2 59748 43.0054 274.6336 0001938 270.6087 89.4543 15.27563779 91222
Epoch: Dec 19, 2025 • Age: 6 hours

当前状态

高度 490.4 km
速度 7.62 km/s
星下点 -30.71°S, 120.97°E
发射日期 May 13, 2024
运行时间 1.6 years
类型 internet

技术详情

分类 Payload
质量 730.00 kg
干质量 700.00 kg
总质量 730.00 kg
长度 0.30 m
直径 4.10 m
跨度 29.00 m
形状 Box + pan
制造商 SPXS
平台类型 Starlink V2M
阶段状态 In Orbit
所有者/国家 SPXS/US

大型星座

Loading constellations...